Warsaw, IN

5:47 AM EDT on April 29, 2017 (GMT -0400)
Warsaw Municipal

Weather History for KASW - February, 2011

Change the Weather History Date:

Sunday, February 13, 2011

  Actual Average Record
Temperature  
Mean Temperature 40 °F -  
Max Temperature 46 °F 34 °F 61 °F (1990)
Min Temperature 34 °F 16 °F -7 °F (1979)
Degree Days  
Heating Degree Days 25    
Moisture  
Dew Point 29 °F    
Average Humidity 63    
Maximum Humidity 73    
Minimum Humidity 50    
Precipitation  
Precipitation 0.00 in - - ()
Sea Level Pressure  
Sea Level Pressure 29.81 in    
Wind  
Wind Speed 11 mph (SW)    
Max Wind Speed 17 mph    
Max Gust Speed 25 mph    
Visibility 10 miles    
Events      
Averages and records for this station are not official NWS values.
T = Trace of Precipitation, MM = Missing Value Source: NWS Daily Summary

Daily Weather History Graph

Daily Weather History Graph

Search for Another Location

Airport or City:

Trip Planner

Search our weather history database for the weather conditions in past years. The results will help you decide how hot, cold, wet, or windy it might be!

Date:

Astronomy

Feb. 13, 2011 Rise Set
Actual Time 7:41 AM EST 6:14 PM EST
Civil Twilight 7:12 AM EST 6:43 PM EST
Nautical Twilight 6:40 AM EST 7:15 PM EST
Astronomical Twilight 6:08 AM EST 7:47 PM EST
Moon 1:10 PM EST (2/13) 3:52 AM EST (2/13)
Length of Visible Light 11h 30m
Length of Day
10h 33m
Waxing Gibbous, 74% of the Moon is Illuminated
Feb 13
Waxing Gibbous
Feb 18
Full
Feb 24
Last Quarter
Mar 4
New
Mar 12
First Quarter

Hourly Weather History & Observations

Time (EST) Temp. Windchill Dew Point Humidity Pressure Visibility Wind Dir Wind Speed Gust Speed Precip Events Conditions
12:05 AM 39.2 °F 32.0 °F 29.1 °F 67% 29.95 in 10.0 mi SW 11.5 mph 19.6 mph N/A   Overcast
12:25 AM 39.0 °F 32.3 °F 29.1 °F 68% 29.94 in 10.0 mi SW 10.4 mph 20.7 mph N/A   Mostly Cloudy
12:45 AM 38.8 °F 32.6 °F 29.1 °F 68% 29.93 in 10.0 mi SW 9.2 mph 16.1 mph N/A   Scattered Clouds
1:05 AM 38.3 °F 32.5 °F 29.1 °F 70% 29.93 in 10.0 mi SW 8.1 mph - N/A   Scattered Clouds
1:25 AM 38.3 °F 33.2 °F 29.1 °F 70% 29.92 in 10.0 mi SW 6.9 mph 16.1 mph N/A   Overcast
1:45 AM 38.3 °F 30.9 °F 29.3 °F 70% 29.92 in 10.0 mi SW 11.5 mph 16.1 mph N/A   Overcast
2:05 AM 38.7 °F 31.8 °F 29.5 °F 70% 29.91 in 10.0 mi SW 10.4 mph 17.3 mph N/A   Overcast
2:25 AM 38.8 °F 32.1 °F 29.5 °F 69% 29.90 in 10.0 mi SW 10.4 mph 19.6 mph N/A   Overcast
2:45 AM 38.8 °F 32.6 °F 29.5 °F 69% 29.89 in 10.0 mi SW 9.2 mph 17.3 mph N/A   Overcast
3:45 AM 38.3 °F 31.9 °F 28.4 °F 68% 29.88 in 10.0 mi WSW 9.2 mph 17.3 mph N/A   Clear
4:05 AM 37.8 °F 30.7 °F 28.4 °F 69% 29.88 in 10.0 mi WSW 10.4 mph 19.6 mph N/A   Clear
4:25 AM 37.4 °F 28.9 °F 28.2 °F 69% 29.88 in 10.0 mi WSW 13.8 mph - N/A   Clear
4:45 AM 37.0 °F 29.3 °F 28.0 °F 70% 29.88 in 10.0 mi WSW 11.5 mph - N/A   Clear
5:05 AM 36.5 °F 29.2 °F 27.9 °F 71% 29.86 in 10.0 mi WSW 10.4 mph 16.1 mph N/A   Clear
5:25 AM 36.7 °F 28.0 °F 27.5 °F 69% 29.85 in 10.0 mi WSW 13.8 mph 17.3 mph N/A   Clear
6:05 AM 36.5 °F 28.7 °F 27.3 °F 69% 29.85 in 10.0 mi SW 11.5 mph 18.4 mph N/A   Clear
6:25 AM 36.1 °F 28.2 °F 27.3 °F 70% 29.85 in 10.0 mi WSW 11.5 mph - N/A   Clear
6:45 AM 35.8 °F 26.9 °F 27.1 °F 71% 29.84 in 10.0 mi SW 13.8 mph 18.4 mph N/A   Clear
7:05 AM 35.6 °F 27.5 °F 27.1 °F 71% 29.84 in 10.0 mi SW 11.5 mph 19.6 mph N/A   Clear
7:25 AM 35.1 °F 27.9 °F 27.0 °F 72% 29.84 in 10.0 mi SW 9.2 mph - N/A   Clear
7:45 AM 34.7 °F 27.5 °F 26.8 °F 73% 29.83 in 10.0 mi SW 9.2 mph 17.3 mph N/A   Clear
8:25 AM 34.7 °F 27.5 °F 27.0 °F 73% 29.83 in 10.0 mi SW 9.2 mph 16.1 mph N/A   Clear
8:45 AM 35.2 °F 27.6 °F 27.1 °F 72% 29.84 in 10.0 mi SW 10.4 mph 16.1 mph N/A   Clear
9:05 AM 36.1 °F 28.2 °F 27.3 °F 70% 29.83 in 10.0 mi SW 11.5 mph 18.4 mph N/A   Clear
9:25 AM 36.5 °F 28.2 °F 27.5 °F 70% 29.82 in 10.0 mi SW 12.7 mph 17.3 mph N/A   Clear
9:45 AM 37.4 °F 29.3 °F 27.9 °F 68% 29.82 in 10.0 mi SW 12.7 mph 18.4 mph N/A   Clear
10:05 AM 38.1 °F 29.8 °F 27.9 °F 67% 29.81 in 10.0 mi WSW 13.8 mph 20.7 mph N/A   Clear
10:25 AM 38.3 °F 29.0 °F 28.0 °F 67% 29.82 in 10.0 mi SW 17.3 mph 23.0 mph N/A   Clear
10:45 AM 38.5 °F 29.9 °F 28.2 °F 67% 29.82 in 10.0 mi SW 15.0 mph 24.2 mph N/A   Clear
11:05 AM 39.7 °F 32.7 °F 28.4 °F 64% 29.81 in 10.0 mi SW 11.5 mph 24.2 mph N/A   Clear
11:25 AM 40.1 °F 32.0 °F 28.4 °F 63% 29.82 in 10.0 mi SW 15.0 mph 25.3 mph N/A   Clear
11:45 AM 41.5 °F 33.2 °F 28.4 °F 60% 29.81 in 10.0 mi WSW 17.3 mph 24.2 mph N/A   Clear
12:05 PM 42.3 °F 35.1 °F 28.4 °F 58% 29.80 in 10.0 mi SW 13.8 mph 24.2 mph N/A   Clear
12:25 PM 43.7 °F 36.6 °F 28.4 °F 55% 29.80 in 10.0 mi WSW 15.0 mph 21.9 mph N/A   Clear
12:45 PM 43.9 °F 37.2 °F 28.4 °F 55% 29.79 in 10.0 mi SW 13.8 mph 24.2 mph N/A   Clear
1:05 PM 44.6 °F 37.8 °F 28.4 °F 53% 29.78 in 10.0 mi SW 15.0 mph 25.3 mph N/A   Clear
1:25 PM 45.3 °F 38.1 °F 28.4 °F 52% 29.77 in 10.0 mi SW 17.3 mph 25.3 mph N/A   Clear
1:45 PM 45.5 °F 38.3 °F 28.4 °F 51% 29.76 in 10.0 mi WSW 17.3 mph 24.2 mph N/A   Clear
2:05 PM 46.0 °F 40.2 °F 28.4 °F 50% 29.75 in 10.0 mi SW 12.7 mph 23.0 mph N/A   Clear
2:25 PM 46.2 °F 39.5 °F 28.4 °F 50% 29.74 in 10.0 mi WSW 16.1 mph 20.7 mph N/A   Clear
2:45 PM 46.4 °F 40.7 °F 28.4 °F 50% 29.74 in 10.0 mi SW 12.7 mph 21.9 mph N/A   Clear
3:05 PM 46.4 °F 40.7 °F 28.4 °F 50% 29.74 in 10.0 mi SW 12.7 mph 18.4 mph N/A   Clear
3:25 PM 46.0 °F 41.0 °F 28.6 °F 51% 29.73 in 10.0 mi SW 10.4 mph 18.4 mph N/A   Clear
3:45 PM 45.7 °F 41.0 °F 28.9 °F 52% 29.73 in 10.0 mi SW 9.2 mph 18.4 mph N/A   Clear
4:05 PM 45.3 °F 39.7 °F 29.1 °F 53% 29.73 in 10.0 mi SW 11.5 mph 21.9 mph N/A   Clear
4:25 PM 44.6 °F 38.8 °F 29.3 °F 55% 29.73 in 10.0 mi SW 11.5 mph 19.6 mph N/A   Clear
4:45 PM 45.5 °F 39.2 °F 29.3 °F 53% 29.72 in 10.0 mi SW 13.8 mph - N/A   Clear
5:05 PM 45.3 °F 40.1 °F 29.3 °F 54% 29.71 in 10.0 mi SW 10.4 mph 18.4 mph N/A   Clear
5:25 PM 44.6 °F 39.7 °F 29.3 °F 55% 29.70 in 10.0 mi SSW 9.2 mph 21.9 mph N/A   Clear
5:45 PM 44.1 °F 39.0 °F 29.5 °F 57% 29.70 in 10.0 mi SSW 9.2 mph 16.1 mph N/A   Clear
6:05 PM 43.3 °F 38.6 °F 29.8 °F 59% 29.68 in 10.0 mi SSW 8.1 mph - N/A   Clear
6:45 PM 43.2 °F 37.4 °F 30.2 °F 60% 29.68 in 10.0 mi SSW 10.4 mph 19.6 mph N/A   Clear
7:05 PM 43.5 °F 38.3 °F 30.7 °F 61% 29.68 in 10.0 mi SSW 9.2 mph 19.6 mph N/A   Clear
7:25 PM 43.7 °F 38.6 °F 31.1 °F 61% 29.67 in 10.0 mi SW 9.2 mph 17.3 mph N/A   Clear
7:45 PM 43.9 °F 38.3 °F 31.5 °F 62% 29.66 in 10.0 mi SSW 10.4 mph 19.6 mph N/A   Clear
8:05 PM 44.2 °F 39.2 °F 31.6 °F 61% 29.65 in 10.0 mi SSW 9.2 mph - N/A   Clear
8:25 PM 44.6 °F 40.7 °F 31.8 °F 61% 29.63 in 10.0 mi SSW 6.9 mph 21.9 mph N/A   Clear
8:45 PM 45.1 °F 39.5 °F 32.0 °F 60% 29.62 in 10.0 mi SSW 11.5 mph 21.9 mph N/A   Clear
9:05 PM 45.5 °F 39.6 °F 32.0 °F 59% 29.60 in 10.0 mi SSW 12.7 mph 19.6 mph N/A   Clear
9:25 PM 45.7 °F 40.6 °F 32.0 °F 59% 29.60 in 10.0 mi SSW 10.4 mph 21.9 mph N/A   Clear
9:45 PM 45.9 °F 40.4 °F 32.0 °F 58% 29.60 in 10.0 mi SW 11.5 mph 23.0 mph N/A   Clear
10:05 PM 46.8 °F - 31.6 °F 56% 29.58 in 10.0 mi SW 12.7 mph 24.2 mph N/A   Clear
10:45 PM 46.9 °F - 31.1 °F 54% 29.57 in 10.0 mi SW 20.7 mph 31.1 mph N/A   Clear
11:05 PM 46.8 °F - 30.9 °F 54% 29.56 in 10.0 mi WSW 24.2 mph 35.7 mph N/A   Clear
11:25 PM 46.8 °F - 30.6 °F 53% 29.56 in 10.0 mi WSW 21.9 mph 32.2 mph N/A   Clear